| time (UTC) | temp C | wind direction | speed KPH | gust KPH | rain 1hr cm | rain 24hr cm | rain mn cm | humidity % | barometer mb |
| 20260906023043 | 13 | 255 | 3.2 | 8.0 | 0.00 | 0.00 | 0.00 | 71 | 984.3 |
| 20260906022043 | 13 | 278 | 3.2 | 8.0 | 0.00 | 0.00 | 0.00 | 71 | 984.0 |
| 20260906021043 | 13 | 278 | 3.2 | 8.0 | 0.00 | 0.00 | 0.00 | 71 | 984.0 |
| 20260906020043 | 13 | 278 | 4.8 | 9.7 | 0.00 | 0.00 | 0.00 | 71 | 984.0 |
| 20260906015043 | 13 | 270 | 3.2 | 9.7 | 0.00 | 0.00 | 0.00 | 70 | 984.0 |
| 20260906014043 | 13 | 225 | 3.2 | 3.2 | 0.00 | 0.00 | 0.00 | 70 | 983.9 |
| 20260906013043 | 13 | 218 | 3.2 | 4.8 | 0.00 | 0.00 | 0.00 | 70 | 983.9 |
| 20260906012044 | 13 | 175 | 3.2 | 8.0 | 0.00 | 0.00 | 0.00 | 70 | 983.8 |
| 20260906011043 | 14 | 195 | 3.2 | 4.8 | 0.00 | 0.00 | 0.00 | 69 | 983.9 |
| 20260906010043 | 14 | 230 | 3.2 | 8.0 | 0.00 | 0.00 | 0.00 | 68 | 983.8 |
| 20260906005043 | 14 | 278 | 3.2 | 8.0 | 0.00 | 0.00 | 0.00 | 68 | 983.8 |
| 20260906004043 | 14 | 270 | 3.2 | 6.4 | 0.00 | 0.00 | 0.00 | 67 | 983.8 |
| 20260906003043 | 14 | 270 | 3.2 | 6.4 | 0.00 | 0.00 | 0.00 | 67 | 983.6 |
| 20260906002047 | 14 | 282 | 3.2 | 9.7 | 0.00 | 0.00 | 0.00 | 67 | 983.5 |
| 20260905235955 | 15 | 270 | 3.2 | 9.7 | 0.00 | 0.00 | 0.00 | 66 | 983.4 |
| 20260905234955 | 15 | 278 | 4.8 | 9.7 | 0.00 | 0.00 | 0.00 | 66 | 983.4 |
| 20260905233955 | 15 | 281 | 4.8 | 9.7 | 0.00 | 0.00 | 0.00 | 66 | 983.3 |
| 20260905232955 | 15 | 278 | 4.8 | 9.7 | 0.00 | 0.00 | 0.00 | 66 | 983.2 |
| 20260905231955 | 15 | 280 | 3.2 | 9.7 | 0.00 | 0.00 | 0.00 | 65 | 983.2 |
| 20260905230955 | 15 | 280 | 4.8 | 9.7 | 0.00 | 0.00 | 0.00 | 65 | 983.1 |
| 20260905225955 | 15 | 284 | 3.2 | 9.7 | 0.00 | 0.00 | 0.00 | 64 | 983.0 |
| 20260905224955 | 16 | 281 | 4.8 | 9.7 | 0.00 | 0.00 | 0.00 | 63 | 982.9 |
| 20260905223955 | 16 | 270 | 4.8 | 9.7 | 0.00 | 0.00 | 0.00 | 62 | 982.9 |
| 20260905222955 | 16 | 270 | 3.2 | 9.7 | 0.00 | 0.00 | 0.00 | 62 | 983.0 |
| 20260905221955 | 16 | 290 | 3.2 | 9.7 | 0.00 | 0.00 | 0.00 | 61 | 982.9 |
| 20260905220955 | 16 | 285 | 4.8 | 9.7 | 0.00 | 0.00 | 0.00 | 61 | 982.9 |
| 20260905215955 | 16 | 284 | 4.8 | 9.7 | 0.00 | 0.00 | 0.00 | 61 | 983.0 |
| 20260905214955 | 16 | 288 | 6.4 | 14.5 | 0.00 | 0.00 | 0.00 | 61 | 982.9 |
| 20260905213955 | 16 | 285 | 4.8 | 14.5 | 0.00 | 0.00 | 0.00 | 61 | 982.8 |
| 20260905212955 | 17 | 270 | 4.8 | 12.9 | 0.00 | 0.00 | 0.00 | 60 | 982.7 |
| 20260905211955 | 17 | 231 | 3.2 | 11.3 | 0.00 | 0.00 | 0.00 | 60 | 982.5 |
| 20260905210955 | 17 | 270 | 3.2 | 9.7 | 0.00 | 0.00 | 0.00 | 59 | 982.4 |
| 20260905205955 | 17 | 270 | 3.2 | 8.0 | 0.00 | 0.00 | 0.00 | 58 | 982.3 |
| 20260905204955 | 17 | 279 | 3.2 | 8.0 | 0.00 | 0.00 | 0.00 | 58 | 982.3 |
| 20260905203955 | 17 | 279 | 3.2 | 8.0 | 0.00 | 0.00 | 0.00 | 58 | 982.3 |
| 20260905202955 | 18 | 270 | 3.2 | 8.0 | 0.00 | 0.00 | 0.00 | 56 | 982.2 |
| 20260905191955 | 19 | 289 | 3.2 | 9.7 | 0.00 | 0.00 | 0.00 | 53 | 981.6 |
| 20260905190955 | 19 | 296 | 3.2 | 9.7 | 0.00 | 0.00 | 0.00 | 53 | 981.4 |
| 20260905185955 | 19 | 297 | 3.2 | 9.7 | 0.00 | 0.00 | 0.00 | 53 | 981.3 |
| 20260905184956 | 20 | 309 | 4.8 | 12.9 | 0.00 | 0.00 | 0.00 | 52 | 981.2 |
| 20260905183955 | 20 | 309 | 4.8 | 12.9 | 0.00 | 0.00 | 0.00 | 52 | 981.2 |
| 20260905182955 | 20 | 299 | 4.8 | 17.7 | 0.00 | 0.00 | 0.00 | 52 | 981.0 |
| 20260905181955 | 20 | 298 | 4.8 | 22.5 | 0.00 | 0.00 | 0.00 | 52 | 980.7 |
| 20260905180955 | 20 | 299 | 4.8 | 14.5 | 0.00 | 0.00 | 0.00 | 53 | 980.6 |
| 20260905175955 | 21 | 304 | 3.2 | 11.3 | 0.00 | 0.00 | 0.00 | 53 | 980.4 |
| 20260905174955 | 21 | 298 | 6.4 | 14.5 | 0.00 | 0.00 | 0.00 | 52 | 980.2 |
| 20260905173955 | 21 | 304 | 6.4 | 17.7 | 0.00 | 0.00 | 0.00 | 51 | 980.0 |
| 20260905172955 | 21 | 304 | 6.4 | 17.7 | 0.00 | 0.00 | 0.00 | 51 | 980.0 |
| 20260905171955 | 21 | 294 | 9.7 | 27.4 | 0.00 | 0.00 | 0.00 | 49 | 979.8 |
| 20260905170955 | 22 | 295 | 11.3 | 25.7 | 0.00 | 0.00 | 0.00 | 48 | 979.6 |
| 20260905165955 | 22 | 290 | 12.9 | 33.8 | 0.00 | 0.00 | 0.00 | 48 | 979.4 |
| 20260905164955 | 22 | 294 | 17.7 | 35.4 | 0.00 | 0.00 | 0.00 | 48 | 979.3 |
| 20260905163955 | 22 | 293 | 11.3 | 37.0 | 0.00 | 0.00 | 0.00 | 49 | 979.1 |
| 20260905162955 | 22 | 294 | 14.5 | 35.4 | 0.00 | 0.00 | 0.00 | 48 | 978.8 |
| 20260905161955 | 22 | 294 | 14.5 | 35.4 | 0.00 | 0.00 | 0.00 | 48 | 978.8 |
| 20260905160955 | 22 | 290 | 12.9 | 37.0 | 0.00 | 0.00 | 0.00 | 49 | 978.7 |
| 20260905155955 | 23 | 296 | 14.5 | 33.8 | 0.00 | 0.00 | 0.00 | 48 | 978.5 |
| 20260905154955 | 23 | 281 | 11.3 | 38.6 | 0.00 | 0.00 | 0.00 | 49 | 978.5 |
| 20260905153955 | 22 | 287 | 9.7 | 27.4 | 0.00 | 0.00 | 0.00 | 50 | 978.6 |
| 20260905152955 | 23 | 286 | 9.7 | 30.6 | 0.00 | 0.00 | 0.00 | 49 | 978.5 |
| 20260905151955 | 23 | 280 | 8.0 | 22.5 | 0.00 | 0.00 | 0.00 | 51 | 978.4 |
| 20260905150955 | 23 | 292 | 9.7 | 22.5 | 0.00 | 0.00 | 0.00 | 51 | 978.3 |
| 20260905145955 | 23 | 275 | 9.7 | 30.6 | 0.00 | 0.00 | 0.00 | 50 | 978.4 |
| 20260905144955 | 23 | 275 | 9.7 | 30.6 | 0.00 | 0.00 | 0.00 | 50 | 978.4 |
| 20260905143956 | 23 | 286 | 14.5 | 27.4 | 0.00 | 0.00 | 0.00 | 49 | 978.4 |
| 20260905142954 | 23 | 290 | 12.9 | 30.6 | 0.00 | 0.00 | 0.00 | 50 | 978.4 |
| 20260905141955 | 24 | 283 | 11.3 | 27.4 | 0.00 | 0.00 | 0.00 | 50 | 978.3 |
| 20260905140955 | 24 | 270 | 9.7 | 30.6 | 0.00 | 0.00 | 0.00 | 51 | 978.4 |
| 20260905135954 | 24 | 265 | 12.9 | 46.7 | 0.00 | 0.00 | 0.00 | 51 | 978.4 |
| 20260905134955 | 24 | 255 | 9.7 | 20.9 | 0.00 | 0.00 | 0.00 | 52 | 978.4 |
| 20260905133955 | 23 | 274 | 12.9 | 27.4 | 0.00 | 0.00 | 0.00 | 52 | 978.5 |
| 20260905132955 | 23 | 281 | 11.3 | 27.4 | 0.00 | 0.00 | 0.00 | 53 | 978.5 |
| 20260905131955 | 23 | 279 | 12.9 | 30.6 | 0.00 | 0.00 | 0.00 | 52 | 978.5 |
| 20260905130954 | 23 | 261 | 12.9 | 37.0 | 0.00 | 0.00 | 0.00 | 52 | 978.6 |
| 20260905125955 | 23 | 270 | 14.5 | 38.6 | 0.00 | 0.00 | 0.00 | 53 | 978.6 |
| 20260905124956 | 23 | 270 | 14.5 | 38.6 | 0.00 | 0.00 | 0.00 | 53 | 978.6 |
| 20260905123955 | 23 | 263 | 12.9 | 30.6 | 0.00 | 0.00 | 0.00 | 55 | 978.6 |
| 20260905122955 | 22 | 266 | 12.9 | 35.4 | 0.00 | 0.00 | 0.00 | 54 | 978.7 |
| 20260905121955 | 22 | 264 | 9.7 | 27.4 | 0.00 | 0.00 | 0.00 | 57 | 978.8 |
| 20260905120955 | 22 | 256 | 11.3 | 30.6 | 0.00 | 0.00 | 0.00 | 58 | 978.8 |
| 20260905115955 | 22 | 256 | 9.7 | 24.1 | 0.00 | 0.00 | 0.00 | 61 | 978.8 |
| 20260905114955 | 22 | 270 | 9.7 | 24.1 | 0.00 | 0.00 | 0.00 | 63 | 979.0 |
| 20260905113954 | 22 | 270 | 9.7 | 24.1 | 0.00 | 0.00 | 0.00 | 63 | 979.0 |
| 20260905112955 | 22 | 273 | 9.7 | 25.7 | 0.00 | 0.00 | 0.00 | 64 | 979.1 |
| 20260905111955 | 22 | 229 | 8.0 | 22.5 | 0.00 | 0.00 | 0.00 | 66 | 979.1 |
| 20260905110955 | 21 | 257 | 9.7 | 22.5 | 0.00 | 0.00 | 0.00 | 65 | 979.1 |
| 20260905105955 | 21 | 235 | 9.7 | 24.1 | 0.00 | 0.00 | 0.00 | 66 | 979.1 |
| 20260905104955 | 21 | 259 | 8.0 | 24.1 | 0.00 | 0.00 | 0.00 | 68 | 979.1 |
| 20260905103955 | 21 | 239 | 9.7 | 27.4 | 0.00 | 0.00 | 0.00 | 67 | 979.2 |
| 20260905102955 | 20 | 280 | 14.5 | 30.6 | 0.00 | 0.00 | 0.00 | 67 | 979.2 |
| 20260905095955 | 20 | 243 | 9.7 | 30.6 | 0.00 | 0.00 | 0.00 | 72 | 979.2 |
| 20260905094955 | 20 | 243 | 9.7 | 30.6 | 0.00 | 0.00 | 0.00 | 72 | 979.2 |
| 20260905093955 | 19 | 218 | 11.3 | 27.4 | 0.00 | 0.00 | 0.00 | 74 | 979.3 |
| 20260905092955 | 19 | 259 | 9.7 | 24.1 | 0.00 | 0.00 | 0.00 | 74 | 979.3 |
| 20260905091955 | 19 | 241 | 8.0 | 25.7 | 0.00 | 0.00 | 0.00 | 75 | 979.3 |
| 20260905090955 | 18 | 238 | 9.7 | 27.4 | 0.00 | 0.00 | 0.00 | 75 | 979.3 |
| 20260905085954 | 18 | 237 | 9.7 | 20.9 | 0.00 | 0.00 | 0.00 | 76 | 979.2 |
| 20260905084954 | 18 | 237 | 9.7 | 20.9 | 0.00 | 0.00 | 0.00 | 76 | 979.2 |
| 20260905083954 | 18 | 280 | 9.7 | 22.5 | 0.00 | 0.00 | 0.00 | 78 | 979.2 |
| 20260905082954 | 18 | 280 | 9.7 | 22.5 | 0.00 | 0.00 | 0.00 | 78 | 979.2 |
| 20260905081954 | 17 | 228 | 8.0 | 17.7 | 0.00 | 0.00 | 0.00 | 79 | 979.1 |
| 20260905080954 | 17 | 248 | 8.0 | 22.5 | 0.00 | 0.00 | 0.00 | 81 | 979.1 |
| 20260905075954 | 16 | 249 | 8.0 | 22.5 | 0.00 | 0.00 | 0.00 | 82 | 979.1 |
| 20260905074954 | 16 | 249 | 8.0 | 22.5 | 0.00 | 0.00 | 0.00 | 82 | 979.1 |
| 20260905073954 | 16 | 264 | 8.0 | 17.7 | 0.00 | 0.00 | 0.00 | 82 | 978.9 |
| 20260905072954 | 16 | 279 | 9.7 | 19.3 | 0.00 | 0.00 | 0.00 | 83 | 978.9 |
| 20260905071954 | 16 | 279 | 9.7 | 19.3 | 0.00 | 0.00 | 0.00 | 83 | 978.9 |
| 20260905070954 | 16 | 230 | 3.2 | 12.9 | 0.00 | 0.00 | 0.00 | 84 | 978.7 |
| 20260905065954 | 15 | 216 | 3.2 | 9.7 | 0.00 | 0.00 | 0.00 | 84 | 978.6 |
| 20260905064954 | 15 | 216 | 3.2 | 9.7 | 0.00 | 0.00 | 0.00 | 84 | 978.6 |
| 20260905063954 | 15 | 211 | 4.8 | 11.3 | 0.00 | 0.00 | 0.00 | 83 | 978.6 |
| 20260905062954 | 15 | 209 | 8.0 | 17.7 | 0.00 | 0.00 | 0.00 | 83 | 978.5 |
| 20260905061954 | 15 | 217 | 4.8 | 14.5 | 0.00 | 0.00 | 0.00 | 83 | 978.7 |
| 20260905060954 | 15 | 216 | 6.4 | 12.9 | 0.00 | 0.00 | 0.00 | 82 | 978.5 |
| 20260905055954 | 15 | 223 | 4.8 | 12.9 | 0.00 | 0.00 | 0.00 | 82 | 978.3 |
| 20260905054954 | 15 | 234 | 3.2 | 9.7 | 0.00 | 0.00 | 0.00 | 82 | 978.3 |
| 20260905053954 | 15 | 225 | 3.2 | 9.7 | 0.00 | 0.00 | 0.00 | 82 | 978.2 |
| 20260905052954 | 15 | 243 | 3.2 | 6.4 | 0.00 | 0.00 | 0.00 | 81 | 978.1 |
| 20260905051954 | 15 | 270 | 1.6 | 4.8 | 0.00 | 0.00 | 0.00 | 81 | 977.9 |
| 20260905050954 | 15 | 229 | 3.2 | 9.7 | 0.00 | 0.00 | 0.00 | 81 | 977.5 |
| 20260905045954 | 15 | 214 | 8.0 | 12.9 | 0.00 | 0.00 | 0.00 | 81 | 977.3 |
| 20260905044954 | 15 | 214 | 8.0 | 14.5 | 0.00 | 0.00 | 0.00 | 81 | 977.2 |
| 20260905043955 | 15 | 237 | 3.2 | 9.7 | 0.00 | 0.00 | 0.00 | 81 | 977.4 |
| 20260905042954 | 16 | 213 | 9.7 | 20.9 | 0.00 | 0.00 | 0.00 | 81 | 977.2 |
| 20260905041954 | 16 | 221 | 4.8 | 14.5 | 0.00 | 0.00 | 0.00 | 81 | 976.9 |
| 20260905040954 | 16 | 211 | 12.9 | 22.5 | 0.00 | 0.00 | 0.00 | 80 | 976.3 |
| 20260905035954 | 16 | 217 | 8.0 | 17.7 | 0.00 | 0.00 | 0.00 | 80 | 976.4 |
| 20260905034954 | 17 | 223 | 4.8 | 11.3 | 0.00 | 0.00 | 0.00 | 79 | 976.8 |
| 20260905033954 | 17 | 227 | 6.4 | 17.7 | 0.00 | 0.00 | 0.00 | 80 | 977.0 |
| 20260905032954 | 17 | 213 | 9.7 | 19.3 | 0.00 | 0.00 | 0.00 | 81 | 976.8 |
| 20260905031954 | 18 | 225 | 3.2 | 9.7 | 0.00 | 0.00 | 0.00 | 81 | 977.2 |
| 20260905030955 | 18 | 281 | 3.2 | 8.0 | 0.00 | 0.00 | 0.00 | 79 | 977.0 |
| 20260905025954 | 18 | 280 | 3.2 | 6.4 | 0.00 | 0.00 | 0.00 | 77 | 977.0 |
| 20260905024955 | 18 | 280 | 3.2 | 9.7 | 0.00 | 0.00 | 0.00 | 76 | 976.6 |
| 20260905023955 | 18 | 252 | 3.2 | 11.3 | 0.00 | 0.00 | 0.00 | 75 | 976.5 |